Time,TemperatureF,DewpointF,PressureIn,WindDirection,WindDirectionDegrees,WindSpeedMPH,WindSpeedGustMPH,Humidity,HourlyPrecipIn,Conditions,Clouds,dailyrainin,SoftwareType,DateUTC
2014-01-21 00:15:00,47.9,47.0,30.08,WNW,288,0.0,1.0,97,-99.99,,,0.00,weatherlink.com 1.10,2014-01-21 05:15:00,
2014-01-21 00:35:00,47.8,46.0,30.07,WNW,288,0.0,1.0,97,-99.99,,,0.00,weatherlink.com 1.10,2014-01-21 05:35:00,
2014-01-21 00:55:00,47.6,46.0,30.06,WNW,288,0.0,0.0,97,-99.99,,,0.00,weatherlink.com 1.10,2014-01-21 05:55:00,
2014-01-21 01:14:00,47.4,46.0,30.06,WNW,288,0.0,1.0,98,-99.99,,,0.00,weatherlink.com 1.10,2014-01-21 06:14:00,
2014-01-21 01:34:00,47.6,47.0,30.05,WNW,288,0.0,0.0,98,-99.99,,,0.00,weatherlink.com 1.10,2014-01-21 06:34:00,
2014-01-21 01:55:00,47.5,46.0,30.04,WNW,288,0.0,0.0,98,-99.99,,,0.00,weatherlink.com 1.10,2014-01-21 06:55:00,
2014-01-21 02:15:00,48.4,47.0,30.03,WNW,288,0.0,0.0,98,-99.99,,,0.00,weatherlink.com 1.10,2014-01-21 07:15:00,
2014-01-21 02:35:00,48.5,47.0,30.03,WNW,288,0.0,0.0,98,-99.99,,,0.00,weatherlink.com 1.10,2014-01-21 07:35:00,
2014-01-21 02:54:00,48.8,48.0,30.02,WNW,288,0.0,0.0,98,-99.99,,,0.00,weatherlink.com 1.10,2014-01-21 07:54:00,
2014-01-21 03:10:00,48.8,48.0,30.02,WNW,288,0.0,1.0,98,-99.99,,,0.00,weatherlink.com 1.10,2014-01-21 08:10:00,
2014-01-21 03:25:00,48.1,47.0,30.02,WNW,288,0.0,0.0,98,-99.99,,,0.00,weatherlink.com 1.10,2014-01-21 08:25:00,
2014-01-21 03:40:00,48.1,47.0,30.02,WNW,288,0.0,0.0,98,-99.99,,,0.00,weatherlink.com 1.10,2014-01-21 08:40:00,
2014-01-21 04:00:00,47.1,46.0,30.02,WNW,288,0.0,0.0,98,-99.99,,,0.00,weatherlink.com 1.10,2014-01-21 09:00:00,
2014-01-21 04:20:00,47.3,46.0,30.01,WNW,288,0.0,1.0,98,-99.99,,,0.00,weatherlink.com 1.10,2014-01-21 09:20:00,
2014-01-21 04:39:00,47.0,46.0,30.01,WNW,288,1.0,2.0,98,-99.99,,,0.00,weatherlink.com 1.10,2014-01-21 09:39:00,
2014-01-21 04:59:00,47.1,46.0,30.01,WNW,288,0.0,0.0,98,-99.99,,,0.00,weatherlink.com 1.10,2014-01-21 09:59:00,
2014-01-21 05:20:00,48.2,47.0,30.00,WNW,288,0.0,1.0,98,-99.99,,,0.00,weatherlink.com 1.10,2014-01-21 10:20:00,
2014-01-21 05:40:00,50.5,49.0,30.01,WNW,288,0.0,1.0,98,-99.99,,,0.00,weatherlink.com 1.10,2014-01-21 10:40:00,
2014-01-21 06:00:00,52.3,52.0,30.01,WNW,288,0.0,1.0,99,-99.99,,,0.00,weatherlink.com 1.10,2014-01-21 11:00:00,
2014-01-21 06:20:00,53.0,52.0,30.02,WNW,288,0.0,1.0,99,-99.99,,,0.00,weatherlink.com 1.10,2014-01-21 11:20:00,
2014-01-21 06:35:00,53.2,52.0,30.01,West,280,1.0,2.0,99,-99.99,,,0.00,weatherlink.com 1.10,2014-01-21 11:35:00,
2014-01-21 06:55:00,53.1,52.0,30.01,West,280,0.0,1.0,99,-99.99,,,0.00,weatherlink.com 1.10,2014-01-21 11:55:00,
2014-01-21 07:14:00,52.2,51.0,30.01,West,269,0.0,1.0,98,-99.99,,,0.00,weatherlink.com 1.10,2014-01-21 12:14:00,
2014-01-21 07:29:00,50.6,50.0,30.01,West,269,0.0,0.0,99,-99.99,,,0.00,weatherlink.com 1.10,2014-01-21 12:29:00,
2014-01-21 07:49:00,50.4,50.0,30.00,West,269,0.0,0.0,99,-99.99,,,0.00,weatherlink.com 1.10,2014-01-21 12:49:00,
2014-01-21 08:10:00,51.7,51.0,30.00,West,269,0.0,0.0,99,-99.99,,,0.00,weatherlink.com 1.10,2014-01-21 13:10:00,
2014-01-21 08:25:00,54.0,53.0,30.00,West,269,0.0,0.0,99,-99.99,,,0.00,weatherlink.com 1.10,2014-01-21 13:25:00,
2014-01-21 08:40:00,55.4,55.0,30.00,SW,219,0.0,0.0,99,-99.99,,,0.00,weatherlink.com 1.10,2014-01-21 13:40:00,
2014-01-21 08:55:00,56.9,56.0,30.00,SW,219,0.0,0.0,99,-99.99,,,0.00,weatherlink.com 1.10,2014-01-21 13:55:00,
2014-01-21 09:15:00,58.9,58.0,30.00,WSW,244,2.0,3.0,99,-99.99,,,0.00,weatherlink.com 1.10,2014-01-21 14:15:00,
2014-01-21 09:35:00,61.4,60.0,30.00,WSW,252,3.0,6.0,98,-99.99,,,0.00,weatherlink.com 1.10,2014-01-21 14:35:00,
2014-01-21 09:55:00,64.5,60.0,30.00,WNW,301,3.0,6.0,88,-99.99,,,0.00,weatherlink.com 1.10,2014-01-21 14:55:00,
2014-01-21 10:15:00,66.8,60.0,30.00,WNW,294,5.0,10.0,80,-99.99,,,0.00,weatherlink.com 1.10,2014-01-21 15:15:00,
2014-01-21 10:35:00,68.9,60.0,29.99,WNW,291,4.0,8.0,75,-99.99,,,0.00,weatherlink.com 1.10,2014-01-21 15:35:00,
2014-01-21 10:55:00,69.7,59.0,29.97,West,265,4.0,12.0,71,-99.99,,,0.00,weatherlink.com 1.10,2014-01-21 15:55:00,
2014-01-21 11:10:00,70.7,58.0,29.97,NNW,333,5.0,10.0,66,-99.99,,,0.00,weatherlink.com 1.10,2014-01-21 16:10:00,
2014-01-21 11:30:00,71.8,56.0,29.95,WNW,288,7.0,14.0,59,-99.99,,,0.00,weatherlink.com 1.10,2014-01-21 16:30:00,
2014-01-21 11:45:00,72.7,55.0,29.94,North,5,6.0,14.0,56,-99.99,,,0.00,weatherlink.com 1.10,2014-01-21 16:45:00,
2014-01-21 12:05:00,72.2,56.0,29.93,West,269,5.0,12.0,58,-99.99,,,0.00,weatherlink.com 1.10,2014-01-21 17:05:00,
2014-01-21 12:20:00,74.5,56.0,29.93,WNW,284,7.0,13.0,54,-99.99,,,0.00,weatherlink.com 1.10,2014-01-21 17:20:00,
2014-01-21 12:40:00,74.3,56.0,29.91,West,274,7.0,20.0,54,-99.99,,,0.00,weatherlink.com 1.10,2014-01-21 17:40:00,
2014-01-21 13:00:00,72.5,56.0,29.90,NW,305,8.0,16.0,57,-99.99,,,0.00,weatherlink.com 1.10,2014-01-21 18:00:00,
2014-01-21 13:15:00,74.7,56.0,29.89,NW,317,8.0,17.0,54,-99.99,,,0.00,weatherlink.com 1.10,2014-01-21 18:15:00,
2014-01-21 13:35:00,73.0,56.0,29.88,WNW,294,9.0,21.0,57,-99.99,,,0.00,weatherlink.com 1.10,2014-01-21 18:35:00,
2014-01-21 13:55:00,72.8,57.0,29.86,WSW,256,7.0,16.0,59,-99.99,,,0.00,weatherlink.com 1.10,2014-01-21 18:55:00,
2014-01-21 14:15:00,75.0,57.0,29.85,WNW,286,10.0,18.0,54,-99.99,,,0.00,weatherlink.com 1.10,2014-01-21 19:15:00,
2014-01-21 14:30:00,72.2,56.0,29.85,NNW,336,8.0,18.0,58,-99.99,,,0.00,weatherlink.com 1.10,2014-01-21 19:30:00,
2014-01-21 14:50:00,62.6,59.0,29.87,NW,308,5.0,11.0,88,0.06,,,0.06,weatherlink.com 1.10,2014-01-21 19:50:00,
2014-01-21 15:09:00,67.1,62.0,29.87,NW,323,6.0,11.0,85,0.06,,,0.06,weatherlink.com 1.10,2014-01-21 20:09:00,
2014-01-21 15:26:00,69.1,60.0,29.86,West,271,8.0,18.0,75,0.06,,,0.06,weatherlink.com 1.10,2014-01-21 20:26:00,
2014-01-21 15:45:00,69.5,58.0,29.85,West,273,8.0,18.0,69,0.00,,,0.06,weatherlink.com 1.10,2014-01-21 20:45:00,
2014-01-21 16:05:00,69.7,58.0,29.85,West,271,7.0,14.0,67,0.00,,,0.06,weatherlink.com 1.10,2014-01-21 21:05:00,
2014-01-21 16:25:00,70.0,57.0,29.85,WSW,244,7.0,17.0,64,0.00,,,0.06,weatherlink.com 1.10,2014-01-21 21:25:00,
2014-01-21 16:45:00,68.8,56.0,29.85,WSW,249,7.0,12.0,66,0.00,,,0.06,weatherlink.com 1.10,2014-01-21 21:45:00,
2014-01-21 17:05:00,67.7,57.0,29.86,West,269,6.0,12.0,69,0.00,,,0.06,weatherlink.com 1.10,2014-01-21 22:05:00,
2014-01-21 17:25:00,66.9,56.0,29.86,SSW,193,4.0,9.0,70,0.00,,,0.06,weatherlink.com 1.10,2014-01-21 22:25:00,
2014-01-21 17:45:00,66.4,57.0,29.86,West,263,5.0,12.0,72,0.00,,,0.06,weatherlink.com 1.10,2014-01-21 22:45:00,
2014-01-21 18:05:00,66.1,57.0,29.87,WSW,244,5.0,13.0,74,0.00,,,0.06,weatherlink.com 1.10,2014-01-21 23:05:00,
2014-01-21 18:25:00,65.3,58.0,29.87,WSW,237,5.0,10.0,78,0.00,,,0.06,weatherlink.com 1.10,2014-01-21 23:25:00,
2014-01-21 18:45:00,64.8,58.0,29.88,West,260,4.0,11.0,81,0.00,,,0.06,weatherlink.com 1.10,2014-01-21 23:45:00,
2014-01-21 19:05:00,64.7,59.0,29.88,West,260,6.0,12.0,84,0.00,,,0.06,weatherlink.com 1.10,2014-01-22 00:05:00,
2014-01-21 19:25:00,63.0,59.0,29.88,West,270,4.0,11.0,89,0.01,,,0.07,weatherlink.com 1.10,2014-01-22 00:25:00,
2014-01-21 19:45:00,62.7,59.0,29.88,West,259,4.0,12.0,90,0.01,,,0.07,weatherlink.com 1.10,2014-01-22 00:45:00,
2014-01-21 20:05:00,62.9,60.0,29.88,WNW,285,5.0,11.0,91,0.01,,,0.07,weatherlink.com 1.10,2014-01-22 01:05:00,
2014-01-21 20:25:00,62.8,59.0,29.89,WNW,291,5.0,10.0,88,0.00,,,0.07,weatherlink.com 1.10,2014-01-22 01:25:00,
2014-01-21 20:45:00,62.9,58.0,29.88,NW,309,7.0,13.0,86,0.00,,,0.07,weatherlink.com 1.10,2014-01-22 01:45:00,
2014-01-21 21:05:00,62.9,58.0,29.89,WNW,283,6.0,16.0,85,0.00,,,0.07,weatherlink.com 1.10,2014-01-22 02:05:00,
2014-01-21 21:25:00,62.3,57.0,29.90,West,269,4.0,12.0,84,0.00,,,0.07,weatherlink.com 1.10,2014-01-22 02:25:00,
2014-01-21 21:45:00,61.4,55.0,29.91,NNW,327,7.0,14.0,81,0.00,,,0.07,weatherlink.com 1.10,2014-01-22 02:45:00,
2014-01-21 22:05:00,59.8,52.0,29.92,West,272,8.0,15.0,77,0.00,,,0.07,weatherlink.com 1.10,2014-01-22 03:05:00,
2014-01-21 22:25:00,58.3,49.0,29.93,NW,307,6.0,16.0,72,0.00,,,0.07,weatherlink.com 1.10,2014-01-22 03:25:00,
2014-01-21 22:45:00,57.0,48.0,29.94,NW,319,6.0,13.0,73,0.00,,,0.07,weatherlink.com 1.10,2014-01-22 03:45:00,
2014-01-21 23:05:00,56.2,47.0,29.95,WNW,289,5.0,12.0,73,0.00,,,0.07,weatherlink.com 1.10,2014-01-22 04:05:00,
2014-01-21 23:25:00,55.4,47.0,29.94,WNW,296,5.0,13.0,75,0.00,,,0.07,weatherlink.com 1.10,2014-01-22 04:25:00,
2014-01-21 23:45:00,54.8,46.0,29.94,North,5,5.0,11.0,74,0.00,,,0.07,weatherlink.com 1.10,2014-01-22 04:45:00,